Regional Weather Roundup
Issued by NWS

Home | Current Version | Previous Version | Text Only | Print | Product List | Glossary Off
Versions: 1 2 3 4 5 6 7 8 9 10 11 12 13 14 15 16 17 18 19 20 21 22 23 24 25 26 27 28 29 30 31 32 33 34 35 36 37 38 39 40 41 42 43 44 45 46 47 48 49 50

000
ASUS43 KIND 261859
RWRIN

WEATHER ROUNDUP FOR INDIANA
NATIONAL WEATHER SERVICE INDIANAPOLIS IN
300 PM EDT THU APR 26 2018

NOTE: "FAIR" INDICATES FEW OR NO CLOUDS BELOW 12,000 FEET WITH NO
SIGNIFICANT WEATHER AND/OR OBSTRUCTIONS TO VISIBILITY.

* - STATION DOES NOT REPORT WEATHER SUCH AS PRECIPITATION OR FOG.

+ - STATION NOT QUALITY CONTROLLED BY THE NATIONAL WEATHER SERVICE.
    USE DATA WITH CAUTION...ESPECIALLY DEWPOINT AND RELATIVE
    HUMIDITY OBSERVATIONS.

INZ001>003-010>013-019-020-262000-
NORTHWEST INDIANA

CITY           SKY/WX    TMP DP  RH WIND       PRES   REMARKS
GARY /AIRPORT/ MOSUNNY   59  21  23 N10       29.94F
KNOX *+        FAIR      61  32  33 N5        29.90F
MONTICELLO +   FAIR      60  31  33 CALM      29.90F

$$

LMZ046-743>745-262000-
SOUTHERN LAKE MICHIGAN

STATION/POSITION TIME  TEMP    WIND        PRES    WAVE
                       AIR SEA DIR/SP/G            HT
                 (UTC) (F)     (DEG/KT/KT) (MB)    (FT)
BURNS HARBOR     1840   42      30/  5/  7 1014.6F
MICHIGAN CITY    1830   45     350/  6/  6   N/A

$$

INZ004-005-014>016-021>024-262000-
NORTH CENTRAL INDIANA

CITY           SKY/WX    TMP DP  RH WIND       PRES   REMARKS
ELKHART        FAIR      63  32  31 CALM      29.91F
GOSHEN         FAIR      60  38  43 S8        29.90F
PERU/GRISSOM   FAIR      62  37  40 CALM      29.89
ROCHESTER +    FAIR      63  37  39 S5        29.91F
SOUTH BEND     FAIR      60  32  34 VRB5      29.92F
WARSAW +       FAIR      59  37  44 W6        29.91F

$$

INZ006>009-017-018-025>027-262000-
NORTHEAST INDIANA

CITY           SKY/WX    TMP DP  RH WIND       PRES   REMARKS
ANGOLA *+      FAIR      59  36  41 VRB5G13   29.90F
FORT WAYNE     FAIR      62  40  44 CALM      29.91F
KENDALLVILLE + FAIR      60  30  32 N3        29.91F

$$

INZ028-029-035-036-043>045-051>053-262000-
WEST CENTRAL INDIANA

CITY           SKY/WX    TMP DP  RH WIND       PRES   REMARKS
GREENCASTLE +  FAIR      61  34  36 N7        29.90F HAZE
LAFAYETTE      FAIR      62  37  39 N8        29.90F
TERRE HAUTE    FAIR      63  28  26 N6        29.90F

$$

INZ030>032-037>040-046>048-054>057-064-065-262000-
CENTRAL INDIANA

CITY           SKY/WX    TMP DP  RH WIND       PRES   REMARKS
COLUMBUS       MOSUNNY   59  25  27 N5        29.90F
GREENWOOD *+   FAIR      61  30  31 NW5       29.90S
INDIANAPOLIS   FAIR      62  31  31 VRB3      29.89F
-EAGLE CREEK   FAIR      62  36  37 NW5       29.89F
KOKOMO +       FAIR      61  36  39 CALM      29.91F
MT COMFORT *+  FAIR      61  39  44 CALM      29.90F
SHELBYVILLE    FAIR      62  30  29 VRB3      29.89F
ZIONSVILLE +   FAIR      59  37  44 N6        29.90F

$$

INZ033-034-041-042-049-050-058-059-262000-
EAST CENTRAL INDIANA

CITY           SKY/WX    TMP DP  RH WIND       PRES   REMARKS
MUNCIE         FAIR      64  38  38 CALM      29.89F
RICHMOND +     FAIR      61  28  29 CALM      29.89F

$$

INZ060-061-067>069-081>083-085>088-262000-
SOUTHWEST INDIANA

CITY           SKY/WX    TMP DP  RH WIND       PRES   REMARKS
EVANSVILLE     FAIR      67  38  34 N10G18    29.89F
HUNTINGBURG +  FAIR      65  36  34 VRB6      29.88F

$$

INZ062-063-066-070>080-084-089>092-262000-
SOUTH CENTRAL AND SOUTHEAST INDIANA

CITY           SKY/WX    TMP DP  RH WIND       PRES   REMARKS
BLOOMINGTON    FAIR      65  33  30 N10       29.88F
FRENCH LICK *+ FAIR      64  18  16 CALM      29.87F
SEYMOUR +      FAIR      64  32  29 CALM      29.88F

$$




USA.gov is the U.S. government's official web portal to all federal, state and local government web resources and services.